Weather History for Bigfork, MN

Change the Weather History Date:

Wednesday, October 26, 2011

  Actual Average (KGPZ) Record (KGPZ)
Temperature  
Mean Temperature 36 °F -  
Max Temperature 48 °F 51 °F 78 °F (1989)
Min Temperature 24 °F 32 °F 2 °F (1936)
Degree Days  
Heating Degree Days 29    
Moisture  
Dew Point 30 °F    
Average Humidity 81    
Maximum Humidity 93    
Minimum Humidity 50    
Precipitation  
Precipitation 0.02 in - - ()
Sea Level Pressure  
Sea Level Pressure 30.06 in    
Wind  
Wind Speed 1 mph (NW)    
Max Wind Speed 8 mph    
Max Gust Speed -    
Visibility 10 miles    
Events Rain    
Averages and records for this station are not official NWS values.
T = Trace of Precipitation, MM = Missing Value Source: NWS Daily Summary

Daily Weather History Graph

Daily Weather History Graph

Search for Another Location

Airport:

Trip Planner

Search our weather history database for the weather conditions in past years. The results will help you decide how hot, cold, wet, or windy it might be!

Date:

Astronomy

Oct. 26, 2011 Rise Set
Actual Time 7:49 AM CDT 6:06 PM CDT
Civil Twilight 7:17 AM CDT 6:38 PM CDT
Nautical Twilight 6:41 AM CDT 7:14 PM CDT
Astronomical Twilight 6:05 AM CDT 7:50 PM CDT
Moon 7:42 AM CDT (10/26) 5:43 PM CDT (10/26)
Length of Visible Light 11h 20m
Length of Day
10h 17m
Waning Crescent, 0% of the Moon is Illuminated
Oct 26
Waning Crescent
Oct 26
New
Nov 2
First Quarter
Nov 10
Full
Nov 18
Last Quarter

Hourly Weather History & Observations

Time (CDT) Temp. Windchill Dew Point Humidity Pressure Visibility Wind Dir Wind Speed Gust Speed Precip Events Conditions
12:14 AM 30.2 °F - 26.6 °F 86% 30.06 in 10.0 mi Calm Calm - N/A   Mostly Cloudy
12:34 AM 30.2 °F - 26.6 °F 86% 30.06 in 10.0 mi Calm Calm - N/A   Mostly Cloudy
12:54 AM 30.2 °F - 26.6 °F 86% 30.06 in 10.0 mi Calm Calm - N/A   Scattered Clouds
1:14 AM 30.2 °F - 26.6 °F 86% 30.06 in 10.0 mi Calm Calm - N/A   Scattered Clouds
1:34 AM 30.2 °F - 26.6 °F 86% 30.06 in 10.0 mi Calm Calm - N/A   Scattered Clouds
1:54 AM 30.2 °F - 26.6 °F 86% 30.06 in 10.0 mi Calm Calm - N/A   Mostly Cloudy
2:14 AM 30.2 °F - 26.6 °F 86% 30.06 in 10.0 mi Calm Calm - N/A   Overcast
2:34 AM 30.2 °F - 28.4 °F 93% 30.06 in 10.0 mi Calm Calm - N/A   Overcast
2:54 AM 30.2 °F - 26.6 °F 86% 30.06 in 10.0 mi Calm Calm - N/A   Mostly Cloudy
3:14 AM 28.4 °F - 26.6 °F 93% 30.06 in 10.0 mi Calm Calm - N/A   Scattered Clouds
3:34 AM 28.4 °F - 26.6 °F 93% 30.06 in 10.0 mi Calm Calm - N/A   Mostly Cloudy
3:54 AM 28.4 °F - 26.6 °F 93% 30.06 in 10.0 mi Calm Calm - N/A   Mostly Cloudy
4:14 AM 28.4 °F - 26.6 °F 93% 30.06 in 10.0 mi Calm Calm - N/A   Scattered Clouds
4:34 AM 26.6 °F - 24.8 °F 93% 30.06 in 10.0 mi Calm Calm - N/A   Clear
4:54 AM 26.6 °F - 24.8 °F 93% 30.06 in 10.0 mi Calm Calm - N/A   Clear
5:14 AM 26.6 °F - 24.8 °F 93% 30.07 in 10.0 mi Calm Calm - N/A   Clear
5:35 AM 24.8 °F - 23.0 °F 93% 30.07 in 10.0 mi Calm Calm - N/A   Clear
5:56 AM 24.8 °F - 23.0 °F 93% 30.08 in 10.0 mi Calm Calm - N/A   Clear
6:15 AM 24.8 °F - 23.0 °F 93% 30.08 in 10.0 mi Calm Calm - N/A   Scattered Clouds
6:34 AM 24.8 °F - 23.0 °F 93% 30.07 in 10.0 mi Calm Calm - N/A   Scattered Clouds
6:54 AM 26.6 °F - 24.8 °F 93% 30.07 in 10.0 mi Calm Calm - N/A   Clear
7:14 AM 26.6 °F - 23.0 °F 86% 30.07 in 10.0 mi Calm Calm - N/A   Mostly Cloudy
7:34 AM 26.6 °F - 23.0 °F 86% 30.07 in 10.0 mi Calm Calm - N/A   Overcast
7:54 AM 26.6 °F - 24.8 °F 93% 30.08 in 10.0 mi Calm Calm - N/A   Overcast
8:14 AM 26.6 °F - 24.8 °F 93% 30.08 in 10.0 mi Calm Calm - N/A   Mostly Cloudy
8:34 AM 28.4 °F - 26.6 °F 93% 30.08 in 10.0 mi Calm Calm - N/A   Scattered Clouds
8:54 AM 28.4 °F - 26.6 °F 93% 30.09 in 10.0 mi Calm Calm - N/A   Scattered Clouds
9:16 AM 33.8 °F - 30.2 °F 87% 30.09 in 10.0 mi Calm Calm - N/A   Scattered Clouds
9:34 AM 35.6 °F - 32.0 °F 87% 30.09 in 10.0 mi Calm Calm - N/A   Clear
9:54 AM 37.4 °F - 33.8 °F 87% 30.08 in 10.0 mi Calm Calm - N/A   Clear
10:14 AM 39.2 °F - 35.6 °F 87% 30.09 in 10.0 mi Calm Calm - N/A   Clear
10:54 AM 42.8 °F 39.3 °F 33.8 °F 70% 30.09 in 10.0 mi North 5.8 mph - N/A   Mostly Cloudy
11:14 AM 42.8 °F 41.1 °F 35.6 °F 76% 30.10 in 10.0 mi NNE 3.5 mph - N/A   Scattered Clouds
11:34 AM 44.6 °F 43.1 °F 35.6 °F 71% 30.09 in 10.0 mi NNE 3.5 mph - N/A   Scattered Clouds
12:15 PM 46.4 °F - 33.8 °F 62% 30.09 in 10.0 mi Calm Calm - N/A   Clear
12:35 PM 48.2 °F - 33.8 °F 58% 30.09 in 10.0 mi Calm Calm - N/A   Scattered Clouds
12:54 PM 46.4 °F - 32.0 °F 57% 30.08 in 10.0 mi Calm Calm - N/A   Scattered Clouds
1:14 PM 48.2 °F - 32.0 °F 54% 30.07 in 10.0 mi WNW 3.5 mph - N/A   Scattered Clouds
1:34 PM 46.4 °F 44.3 °F 32.0 °F 57% 30.07 in 10.0 mi NNW 4.6 mph - N/A   Mostly Cloudy
1:54 PM 46.4 °F 45.2 °F 30.2 °F 53% 30.06 in 10.0 mi West 3.5 mph - N/A   Scattered Clouds
2:15 PM 48.2 °F - 30.2 °F 50% 30.05 in 10.0 mi NNW 5.8 mph - N/A   Scattered Clouds
2:34 PM 48.2 °F - 30.2 °F 50% 30.04 in 10.0 mi West 4.6 mph - N/A   Scattered Clouds
2:54 PM 46.4 °F 44.3 °F 32.0 °F 57% 30.04 in 10.0 mi West 4.6 mph - N/A   Scattered Clouds
3:14 PM 44.6 °F 40.7 °F 33.8 °F 66% 30.05 in 10.0 mi North 6.9 mph - N/A   Scattered Clouds
3:34 PM 42.8 °F - 33.8 °F 70% 30.04 in 10.0 mi Calm Calm - N/A Rain Light Rain
3:54 PM 44.6 °F 41.4 °F 33.8 °F 66% 30.03 in 10.0 mi WSW 5.8 mph - N/A   Clear
4:14 PM 44.6 °F 43.1 °F 32.0 °F 61% 30.03 in 10.0 mi SW 3.5 mph - N/A   Clear
4:34 PM 44.6 °F - 33.8 °F 66% 30.03 in 10.0 mi Calm Calm - N/A   Mostly Cloudy
5:14 PM 41.0 °F 35.8 °F 33.8 °F 76% 30.05 in 10.0 mi NW 8.1 mph - N/A Rain Rain
5:34 PM 39.2 °F 37.0 °F 35.6 °F 87% 30.03 in 10.0 mi SE 3.5 mph - 0.02 in Rain Light Rain
5:54 PM 37.4 °F 32.8 °F 35.6 °F 93% 30.04 in 10.0 mi North 5.8 mph - N/A   Scattered Clouds
6:14 PM 39.2 °F - 35.6 °F 87% 30.04 in 10.0 mi Calm Calm - N/A   Mostly Cloudy
6:34 PM 37.4 °F - 35.6 °F 93% 30.05 in 10.0 mi Calm Calm - N/A Rain Light Rain
6:54 PM 37.4 °F - 35.6 °F 93% 30.05 in 10.0 mi Calm Calm - N/A Rain Light Rain
7:14 PM 37.4 °F - 35.6 °F 93% 30.04 in 10.0 mi Calm Calm - N/A Rain Light Rain
7:34 PM 37.4 °F - 35.6 °F 93% 30.03 in 10.0 mi Calm Calm - N/A   Scattered Clouds
7:54 PM 35.6 °F 31.7 °F 32.0 °F 87% 30.03 in 7.0 mi SSW 4.6 mph - N/A   Scattered Clouds
8:14 PM 33.8 °F 29.6 °F 32.0 °F 93% 30.03 in 7.0 mi SSW 4.6 mph - N/A   Clear
8:34 PM 33.8 °F - 30.2 °F 87% 30.03 in 7.0 mi Calm Calm - N/A   Clear
8:54 PM 32.0 °F - 30.2 °F 93% 30.03 in 0.5 mi Calm Calm - N/A Fog Fog
9:14 PM 30.2 °F - 28.4 °F 93% 30.03 in 1.0 mi Calm Calm - N/A   Mostly Cloudy
9:34 PM 30.2 °F - 28.4 °F 93% 30.03 in 7.0 mi Calm Calm - N/A   Scattered Clouds
9:54 PM 28.4 °F - 26.6 °F 93% 30.03 in 2.5 mi Calm Calm - N/A   Clear
10:14 PM 28.4 °F - 28.4 °F 100% 30.02 in 0.5 mi Calm Calm - N/A Fog Light Freezing Fog
10:34 PM 30.2 °F - 28.4 °F 93% 30.02 in 1.2 mi Calm Calm - N/A   Overcast
10:54 PM 30.2 °F - 28.4 °F 93% 30.02 in 3.0 mi Calm Calm - N/A   Overcast
11:14 PM 30.2 °F - 28.4 °F 93% 30.02 in 10.0 mi Calm Calm - N/A   Overcast
11:34 PM 30.2 °F - 28.4 °F 93% 30.02 in 10.0 mi Calm Calm - N/A   Overcast